Other Public Products
Issued by NWS Grand Forks, ND

Home | Current Version | Previous Version | Graphics & Text | Print | Product List | Glossary On
Versions: 1 2 3 4 5 6 7 8 9 10 11 12 13 14 15 16 17 18 19 20 21 22 23 24 25 26 27 28 29 30 31 32 33 34 35 36 37 38 39 40 41 42 43 44 45 46 47 48 49 50
000
FPUS83 KFGF 111410
OPUFGF
PRAIRIE TO PINES WEATHER ROUNDUP
NATIONAL WEATHER SERVICE EASTERN NORTH DAKOTA/GRAND FORKS ND
800 AM CST MON DEC 11 2017

 **SATELLITE DATA USED TO AUGMENT SKY COVER AT AUTOMATED STATIONS**
 *****  WEATHER ACROSS EASTERN NORTH DAKOTA  *****

CITY           SKY/WX    TMP DP  RH WIND       PRES   REMARKS
GRAND FORKS    CLOUDY    26  24  92 N25G38    29.98R BLWGSNOWWCI  11
GRND FORKS AFB CLOUDY    26  23  86 N29G38    29.97R WCI  10
GRND FORKS NWS   N/A     25 N/A N/A N20         N/A  WCI  11
BUXTON         NOT AVBL
DEVILS LAKE    CLOUDY    25  23  93 N29G35    30.05R WCI   8
FARGO          CLOUDY    31  28  89 N36G49    29.89R WCI  15
WAHPETON ARPT  CLOUDY    36  30  80 NW23G35   29.84R
$$

 *****  WEATHER ACROSS CENTRAL AND WESTERN NORTH DAKOTA  *****

CITY           SKY/WX    TMP DP  RH WIND       PRES   REMARKS
JAMESTOWN      CLOUDY    35  31  85 N26G36    29.96R WCI  22
BISMARCK       CLOUDY    39  31  72 N16G33    30.09R
MINOT          CLOUDY    37  28  70 NW18G29   30.11R
MINOT AFB      CLOUDY    35  28  75 N12       30.11R
GARRISON         N/A     35  30  82 N23G35    30.11R WCI  23
WILLISTON      CLOUDY    36  30  79 NW15      30.24R
DICKINSON      CLOUDY    35  30  82 NW18G31   30.16R WCI  24
HETTINGER      CLOUDY    36  27  69 NW31G40   30.17R
$$

 *****  OTHER OBSERVATIONS NORTHEAST NORTH DAKOTA  *****

CITY           SKY/WX    TMP DP  RH WIND       PRES   REMARKS
WALHALLA       FAIR      21  21 100 N32G45    30.07R WCI   2
LANGDON        NOT AVBL
CAVALIER       LGT RAIN  23  19  86 N35G41    30.04R WCI   4
GRAFTON        NOT AVBL
CANDO          CLOUDY    25  25 100 N24G31    30.10R WCI   9
FORT TOTTEN      N/A     28  25  87 N10       29.95S WCI  19
ROLLA          CLOUDY    19  19 100 N25       30.08R WCI   2
RUGBY          NOT AVBL
 ***** THE ABOVE OBSERVATIONS ARE NON NWS ARE NOT QUALITY
        CONTROLLED AND MAY MIS-REPORT RAIN FOR SNOW...
$$

 *****  OTHER OBSERVATIONS SOUTHEAST NORTH DAKOTA *****

CITY           SKY/WX    TMP DP  RH WIND       PRES   REMARKS
COOPERSTOWN    CLOUDY    30  28  93 N32G44    29.95R WCI  15
VALLEY CITY    NOT AVBL
OAKES            N/A     36  36 100 N31G43    29.91R
GWINNER          N/A     37  32  81 N30       29.90R
SHEYENNE NWR     N/A     36  33  89 N20       29.95S
BUFFALO        NOT AVBL
WYNDMERE       NOT AVBL
 ***** THE ABOVE OBSERVATIONS ARE NON NWS ARE NOT QUALITY
       CONTROLLED AND MAY MIS-REPORT RAIN FOR SNOW...
$$

  *****  WEATHER ACROSS NORTHERN MINNESOTA  *****

CITY           SKY/WX    TMP DP  RH WIND       PRES   REMARKS
FLAG ISLAND    CLOUDY    21  18  86 N23G30    29.87R WCI   5
WARROAD        CLOUDY    21  18  86 NW16G26   29.88R FOG     WCI   7
ROSEAU         CLOUDY    25  19  80 N20       29.90R WCI  11
HALLOCK        CLOUDY    23  21  93 N24       29.99R FOG     WCI   7
THF RVR FALLS  CLOUDY    26  23  88 N23G31    29.90R WCI  11
HALSTAD        NOT AVBL
FOSSTON        CLOUDY    25  23  93 N24G30    29.85R FOG     WCI   9
BAUDETTE       CLOUDY    21  18  88 N20G26    29.81R WCI   6
WASKISH        CLOUDY    23  21  93 N9G20     29.80R WCI  13
CROOKSTON      CLOUDY    25  25 100 N35G43    29.92R FOG     WCI   7
$$
  *****  WEATHER ACROSS CENTRAL AND WEST MINNESOTA  *****

CITY           SKY/WX    TMP DP  RH WIND       PRES   REMARKS
BEMIDJI        CLOUDY    27  24  89 N24G30    29.77R WCI  12
PARK RAPIDS    CLOUDY    33  30  88 NW15      29.72R WCI  23
WADENA         CLOUDY    32  30  93 NW10      29.73R WCI  24
DETROIT LAKES  CLOUDY    32  32 100 NW25G36   29.79R WCI  19
MOORHEAD       CLOUDY    30  28  93 N35G40    29.87R WCI  14
FERGUS FALLS   CLOUDY    34  32  93 N28G37    29.82R WCI  20
ELBOW LAKE     CLOUDY    33  32  94 NW17G24   29.79R FOG     WCI  23
MORRIS MN      CLOUDY    37  34  87 NW22G28   29.78R
STAPLES        CLOUDY    32  30  93 NW10      29.72R WCI  24
WHEATON        NOT AVBL
$$
  *****  WEATHER ELSEWHERE ACROSS MINNESOTA  *****

CITY           SKY/WX    TMP DP  RH WIND       PRES   REMARKS
DULUTH         LGT SNOW  21  20  96 CALM      29.67F VSB 3/4
INTRNTL FALLS  CLOUDY    20  15  81 N7        29.77R WCI  11
ELY            FLURRIES  18  18 100 CALM      29.70S
CLOQUET        CLOUDY    21  19  93 CALM      29.68F
BRAINERD       CLOUDY    29  26  89 W3        29.71R FOG
HIBBING        LGT SNOW  19  18  95 N3        29.70R FOG
ALEXANDRIA     CLOUDY    34  31  88 NW16      29.75R WCI  24
SAINT CLOUD    CLOUDY    29  28  96 W3        29.71R
MINNEAPOLIS    LGT SNOW  31  30  96 W3        29.72S FOG
$$

  *****  WEATHER ACROSS SOUTH DAKOTA  *****

CITY           SKY/WX    TMP DP  RH WIND       PRES   REMARKS
SIOUX FALLS    LGT RAIN  40  32  73 NW30G39   29.85R
BROOKINGS      LGT RAIN  36  33  89 NW23G29   29.82R
WATERTOWN      CLOUDY    36  34  92 NW26G38   29.83R
HURON          CLOUDY    41  33  73 NW31G43   29.93R
SISSETON         N/A     36  34  92 NW24G33   29.84R
ABERDEEN       CLOUDY    40  34  79 NW28G39   29.94R
MITCHELL       CLOUDY    43  32  65 NW30G41   29.95R
PIERRE         CLOUDY    43  30  60 NW29G39   30.06R
MOBRIDGE       CLOUDY    40  31  70 NW25G37   30.02R
RAPID CITY     FAIR      44  16  32 NW40G52   30.17R
$$

  *****  SOME WEATHER IN NEARBY STATES *****

CITY           SKY/WX    TMP DP  RH WIND       PRES   REMARKS
GLASGOW MT     FAIR      29  21  72 NW12      30.32R WCI  19
GREAT FALLS MT FAIR      32  15  49 SW16      30.40F WCI  21
CHEYENNE WY    FAIR      36   0  21 NW10      30.32R
SCOTTSBLUFF NE FAIR      29  11  47 NW17      30.29R WCI  17
OMAHA NE       FAIR      44  20  38 NW24G35   29.92R
DES MOINES IA  FAIR      32  22  66 W6        29.78F
DAVENPORT IA   FAIR      32  24  72 SE12      29.82F WCI  23
CHICAGO IL     CLOUDY    29  21  72 S9        29.92F WCI  20
EAU CLAIRE WI  CLOUDY    24  22  91 SE5       29.73F FOG     WCI  18
LA CROSSE WI   MOCLDY    28  23  81 S6        29.77F WCI  22
$$

  *****  SOME NATIONAL WEATHER *****

CITY           SKY/WX    TMP DP  RH WIND       PRES   REMARKS
LA GUARDIA NY  FAIR      36  26  67 SW13G20   30.03R
RALEIGH NC     FAIR      33  28  81 SW3       30.15S
ATLANTA GA     FAIR      37  30  75 W8        30.18F
NEW ORLEANS LA FAIR      43  40  89 S3        30.32S
OKLAHOMA CITY  FAIR      38  16  40 CALM      30.17F
ALBUQUERQUE NM FAIR      23   4  44 CALM      30.46S
SALT LAKE CITY FOG       24  21  88 CALM      30.61R VSB 1/4
LOS ANGELES CA MOCLDY    59  15  18 VRB3      30.16R
BOISE ID       CLOUDY    23  21  92 CALM      30.67S
SEATTLE WA     FOG       32  31  96 SE5       30.33S VSB 1/4
$$

*** WEATHER ACROSS MANITOBA...SASKATCHEWAN AND ONTARIO ***
                ***ONTARIO***

CITY           SKY/WX    TMP DP  RH WIND       PRES   REMARKS
GERALDTON      LGT SNOW   3   0  85 VRB2      29.74F VSB 3/4
THUNDER BAY    LGT SNOW   7   5  92 SW5       29.77F WCI  -2
SIOUX LOOKOUT  FLURRIES   9   5  85 N7        29.76R WCI  -3
TORONTO        CLOUDY    19  14  79 NE3       30.03R
BIG TROUT LK   FLURRIES  -4  -9  77 N8        29.87R WCI -19
PICKLE LAKE    FLURRIES   0  -4  85 NW5       29.75S WCI -10
DRYDEN         LGT SNOW  14  10  85 N9        29.78R WCI   2
KENORA         FLURRIES  18  16  93 N12G24    29.84R WCI   5
$$
                *** MANITOBA***

CITY           SKY/WX    TMP DP  RH WIND       PRES   REMARKS
BRANDON        CLOUDY    19  12  73 N10       30.16R WCI   8
DAUPHIN        FLURRIES  18  14  86 N12G17    30.22R WCI   5
ISLAND LAKE    FLURRIES  -4  -8  84 NW9       30.07R WCI -20
PILOT MOUND      N/A     18  14  86 N18G30      N/A  WCI   2
THE PAS        CLOUDY     7   1  78 NW5       30.28R WCI  -2
THOMPSON       CLEAR    -11 -17  77 W5        30.19R WCI -23
WINNIPEG       FLURRIES  14   9  79 N20G32    30.07R WCI  -3
LYNN LAKE      CLEAR    -11 -15  84 W5        30.21R WCI -23
CHURCHILL      CRYSTALS  -8 -13  77 N25G32    30.05S BLWGSNOWWCI -34
GILLAM         PTCLDY   -13 -18  77 NW12      30.07R WCI -33
$$
                ***SASKATCHEWAN***

CITY           SKY/WX    TMP DP  RH WIND       PRES   REMARKS
ESTEVAN        CLOUDY    34  28  80 NW21G29   30.19R WCI  22
KINDERSLEY     PTCLDY    25  21  86 W9        30.33R WCI  15
LLOYDMINSTER   PTCLDY    25  21  86 W13       30.28R WCI  13
PRINCE ALBERT  CLOUDY    30  25  80 VRB2      30.26S
REGINA         FLURRIES  32  30  93 NW16G24   30.23R WCI  21
YORKTON        CLOUDY    23  21  93 N10       30.21R WC



USA.gov is the U.S. government's official web portal to all federal, state and local government web resources and services.